Location: Trebic
(49.2170°N, 15.8830°E)
Time: 04:39:14
(UTC+02:00)

Transit 2A Rocket - Pass Details

Date: 24 July 2019
Orbit: 590 x 913 km, 66.7° (Epoch: 20 August)

Event Time Altitude Azimuth Distance (km) Brightness Sun altitude
Rises 03:30:18 0° 208° (SSW) 3,515 - -13.5°
Reaches altitude 10° 03:32:52 10° 206° (SSW) 2,558 - -13.2°
Exits shadow 03:34:14 18° 205° (SSW) 2,056 6.6 -13.1°
Maximum altitude 03:38:49 75° 123° (ESE) 890 5.3 -12.7°
Drops below altitude 10° 03:44:24 10° 39° (NE) 2,404 9.1 -12.1°
Sets 03:46:44 0° 38° (NE) 3,290 10.5 -11.9°
